Richmond, TX

5:05 PM CDT on September 30, 2016 (GMT -0500)
Sugar Land Municipal-Hull

Weather History for KSGR - September, 2013

Change the Weather History Date:

Thursday, September 19, 2013

  Actual Average Record
Temperature  
Mean Temperature 84 °F -  
Max Temperature 91 °F 89 °F 96 °F (1949)
Min Temperature 77 °F 69 °F 51 °F (1981)
Cooling Degree Days 19    
Growing Degree Days 34 (Base 50)    
Moisture  
Dew Point 76 °F    
Average Humidity 79    
Maximum Humidity 90    
Minimum Humidity 59    
Precipitation  
Precipitation 0.49 in - - ()
Sea Level Pressure  
Sea Level Pressure 29.90 in    
Wind  
Wind Speed 6 mph (SE)    
Max Wind Speed 18 mph    
Max Gust Speed 28 mph    
Visibility 8 miles    
Events Rain    
Averages and records for this station are not official NWS values.
T = Trace of Precipitation, MM = Missing Value Source: NWS Daily Summary

Daily Weather History Graph

Daily Weather History Graph

Search for Another Location

Airport or City:

Trip Planner

Search our weather history database for the weather conditions in past years. The results will help you decide how hot, cold, wet, or windy it might be!

Date:

Astronomy

Sep. 19, 2013 Rise Set
Actual Time 7:09 AM CDT 7:22 PM CDT
Civil Twilight 6:45 AM CDT 7:46 PM CDT
Nautical Twilight 6:17 AM CDT 8:14 PM CDT
Astronomical Twilight 5:49 AM CDT 8:42 PM CDT
Moon 7:27 PM CDT (9/19) 7:15 AM CDT (9/19)
Length of Visible Light 13h 00m
Length of Day
12h 12m
Full, 100% of the Moon is Illuminated
Sep 19
Full
Sep 26
Last Quarter
Oct 4
New
Oct 11
First Quarter
Oct 18
Full

Hourly Weather History & Observations

Time (CDT) Temp. Heat Index Dew Point Humidity Pressure Visibility Wind Dir Wind Speed Gust Speed Precip Events Conditions
12:53 AM 80.1 °F 85.1 °F 75.0 °F 85% 29.94 in 10.0 mi ESE 4.6 mph - N/A   Clear
1:53 AM 80.1 °F 85.1 °F 75.0 °F 85% 29.94 in 10.0 mi East 3.5 mph - N/A   Clear
2:53 AM 79.0 °F - 73.9 °F 84% 29.93 in 10.0 mi East 3.5 mph - N/A   Clear
3:53 AM 80.1 °F 85.1 °F 75.0 °F 85% 29.91 in 10.0 mi East 5.8 mph - N/A   Clear
4:53 AM 80.1 °F 85.1 °F 75.0 °F 85% 29.90 in 10.0 mi Calm Calm - N/A   Clear
5:53 AM 80.1 °F 85.1 °F 75.0 °F 85% 29.90 in 10.0 mi Calm Calm - N/A   Clear
6:53 AM 80.1 °F 85.1 °F 75.0 °F 85% 29.91 in 10.0 mi Calm Calm - N/A   Clear
7:53 AM 81.0 °F 87.3 °F 75.9 °F 85% 29.93 in 10.0 mi ENE 3.5 mph - N/A   Scattered Clouds
8:53 AM 84.0 °F 92.6 °F 75.9 °F 76% 29.94 in 10.0 mi ESE 9.2 mph - N/A   Clear
9:53 AM 87.1 °F 97.3 °F 75.9 °F 69% 29.95 in 10.0 mi ESE 8.1 mph - N/A   Partly Cloudy
10:53 AM 89.1 °F 99.1 °F 75.0 °F 63% 29.95 in 10.0 mi ESE 6.9 mph - N/A   Partly Cloudy
11:47 AM 82.4 °F 89.5 °F 75.2 °F 79% 29.94 in 1.8 mi SSW 8.1 mph - 0.08 in Rain Heavy Rain
11:53 AM 82.0 °F 90.2 °F 77.0 °F 85% 29.95 in 1.8 mi SSW 4.6 mph - 0.09 in Rain Light Rain
11:55 AM 82.4 °F 89.5 °F 75.2 °F 79% 29.94 in 3.0 mi Calm Calm - 0.00 in Rain Light Rain
12:53 PM 82.0 °F 89.4 °F 75.9 °F 82% 29.93 in 3.0 mi South 12.7 mph 25.3 mph 0.04 in Rain Heavy Rain
1:03 PM 84.2 °F 94.1 °F 77.0 °F 79% 29.92 in 9.0 mi South 5.8 mph - 0.00 in Rain Light Rain
1:53 PM 90.0 °F 102.5 °F 77.0 °F 65% 29.90 in 10.0 mi SE 11.5 mph - 0.00 in   Partly Cloudy
2:24 PM 89.6 °F 102.2 °F 77.0 °F 66% 29.88 in 10.0 mi SE 10.4 mph 16.1 mph N/A   Mostly Cloudy
2:37 PM 91.4 °F 102.5 °F 75.2 °F 59% 29.88 in 10.0 mi ESE 12.7 mph 20.7 mph N/A   Mostly Cloudy
2:53 PM 90.0 °F 99.0 °F 73.9 °F 59% 29.88 in 10.0 mi ESE 12.7 mph 17.3 mph N/A   Scattered Clouds
3:36 PM 87.8 °F 97.6 °F 75.2 °F 66% 29.86 in 1.5 mi SE 13.8 mph 27.6 mph 0.13 in Rain Light Rain
3:47 PM 84.2 °F 92.3 °F 75.2 °F 74% 29.86 in 5.0 mi ESE 12.7 mph 19.6 mph 0.16 in Rain Light Rain
3:53 PM 84.9 °F 95.3 °F 77.0 °F 77% 29.86 in 10.0 mi ESE 13.8 mph 19.6 mph 0.16 in   Mostly Cloudy
4:53 PM 84.9 °F 92.1 °F 73.9 °F 69% 29.86 in 10.0 mi SE 12.7 mph 27.6 mph N/A   Mostly Cloudy
5:53 PM 82.9 °F 91.8 °F 77.0 °F 82% 29.87 in 10.0 mi East 6.9 mph - 0.00 in   Scattered Clouds
6:53 PM 82.9 °F 91.8 °F 77.0 °F 82% 29.87 in 10.0 mi ESE 8.1 mph - N/A   Scattered Clouds
7:53 PM 82.0 °F 90.2 °F 77.0 °F 85% 29.87 in 10.0 mi ESE 6.9 mph - N/A   Mostly Cloudy
8:13 PM 82.4 °F 90.9 °F 77.0 °F 84% 29.88 in 10.0 mi SE 8.1 mph - N/A   Mostly Cloudy
8:20 PM 82.4 °F 89.5 °F 75.2 °F 79% 29.88 in 10.0 mi SE 9.2 mph - N/A   Overcast
8:53 PM 80.1 °F 85.4 °F 75.9 °F 87% 29.90 in 4.0 mi SE 10.4 mph 21.9 mph 0.02 in Rain Rain
9:53 PM 80.1 °F 85.8 °F 77.0 °F 90% 29.91 in 10.0 mi ESE 4.6 mph - 0.12 in Rain Light Rain
10:53 PM 79.0 °F - 75.0 °F 88% 29.91 in 10.0 mi ESE 4.6 mph - 0.00 in   Clear
11:22 PM 78.8 °F - 75.2 °F 89% 29.91 in 6.0 mi SE 18.4 mph 24.2 mph 0.03 in Rain Rain
11:36 PM 77.0 °F - 73.4 °F 89% 29.90 in 5.0 mi SE 11.5 mph - 0.06 in Rain Light Rain
11:53 PM 78.1 °F - 73.9 °F 87% 29.90 in 10.0 mi SSE 11.5 mph - 0.06 in   Mostly Cloudy